Location: France
(46.2276°N, 2.2137°E)
Time: 17:04:46
(UTC+02:00)

ISS - Visible Passes

Search period start: 14 April 2026 00:00
Search period end: 24 April 2026 00:00
Orbit: 415 x 424 km, 51.6° (Epoch: 14 April)

Date Brightness Start Highest point End Pass type
(mag) Time Alt. Az. Time Alt. Az. Time Alt. Az.
17 Apr -1.1 06:12:11 10° SSE 06:13:59 14° SE 06:15:48 10° E visible
19 Apr -2.4 06:12:35 10° SSW 06:15:40 34° SE 06:18:45 10° ENE visible
20 Apr -1.8 05:26:38 15° S 05:28:23 22° SE 05:31:03 10° E visible
21 Apr -1.3 04:41:06 14° SE 04:41:09 14° SE 04:42:59 10° E visible
21 Apr -3.7 06:14:08 10° WSW 06:17:30 82° SSE 06:20:53 10° ENE visible
22 Apr -3.4 05:28:27 25° SSW 05:30:06 53° SSE 05:33:24 10° ENE visible
23 Apr -2.7 04:42:47 34° SE 04:42:47 34° SE 04:45:50 10° ENE visible
23 Apr -3.2 06:16:11 10° W 06:19:28 51° NNW 06:22:47 10° ENE visible
